Theta_e
354 353 353 352 353 354 355 356 356 355 355 355 354 353 352 352 353 354 355 358 359 360 363 364 362 359 358 359 361 359 357 360 361 358 357 359 359 357 355 355 355 354
355 354 353 352 352 353 355 356 356 356 356 356 355 355 355 355 355 355 355 356 358 359 362 363 362 361 359 359 360 360 359 361 360 357 356 358 359 357 355 354 354 355
356 355 354 353 352 352 354 355 355 356 356 355 355 356 356 356 356 357 356 356 356 357 361 361 361 362 361 360 360 360 360 361 360 357 358 360 361 358 358 357 355 354
356 355 354 352 350 351 352 353 354 356 355 355 355 355 355 355 356 358 358 358 358 358 361 362 361 362 361 361 361 359 359 361 362 360 359 360 359 358 358 357 355 354
355 355 354 351 349 349 350 351 353 354 354 354 355 355 355 356 357 358 359 360 359 358 359 361 362 361 361 362 363 361 359 359 361 362 361 359 359 357 356 356 356 355
354 354 353 352 350 349 349 349 351 353 354 353 354 354 355 356 357 357 357 358 359 357 356 358 359 359 359 360 362 362 360 358 358 361 363 362 361 359 356 356 357 356
353 353 353 352 350 349 349 349 349 351 352 353 353 354 354 355 357 356 356 357 357 357 356 355 357 358 357 358 361 361 361 360 359 361 364 363 362 361 358 356 357 358
353 353 353 351 350 350 349 348 348 348 350 351 352 353 353 354 356 356 356 356 356 356 356 355 356 358 358 357 358 360 360 359 358 359 363 363 363 362 359 358 357 358
355 354 354 353 351 349 348 348 347 347 348 349 350 351 352 353 355 355 355 356 355 354 355 356 356 358 359 357 357 359 360 360 358 358 359 359 359 360 359 359 359 358
355 355 355 355 353 351 350 347 346 346 346 347 348 348 348 351 353 353 354 355 356 355 355 356 356 357 358 358 358 358 359 361 359 358 357 357 357 359 359 359 358 358
357 355 354 355 354 352 350 348 346 345 344 345 346 346 346 348 350 352 353 353 355 355 355 356 357 357 358 358 357 357 358 359 359 358 359 358 358 358 359 358 357 357
360 356 355 355 355 354 352 351 348 345 344 345 346 346 346 346 346 349 351 352 353 355 355 356 357 358 359 359 358 356 355 356 357 357 357 358 358 356 357 358 357 357
361 358 355 355 356 355 353 352 349 347 345 344 344 346 346 346 345 345 348 351 353 354 355 357 358 358 360 361 360 359 356 357 358 356 356 356 355 354 355 356 355 356
359 358 356 355 355 354 352 353 353 351 350 348 346 346 346 346 346 344 344 347 350 354 357 357 357 359 360 361 362 361 358 356 356 355 357 357 355 353 353 353 353 354
360 358 356 355 355 354 354 355 356 354 353 350 348 349 348 347 347 346 345 345 347 351 356 358 359 359 359 359 362 362 359 356 354 356 359 358 355 353 354 353 355 355
359 357 355 355 355 355 357 357 357 357 355 352 350 351 350 348 347 347 345 345 345 347 353 357 358 358 357 356 359 360 358 356 354 355 358 358 356 356 357 357 357 357
358 357 354 355 355 356 358 358 356 355 354 354 353 352 351 350 351 350 349 349 349 349 352 353 352 353 355 356 358 359 357 357 356 356 355 356 358 357 358 358 357 358
357 358 355 354 354 356 358 358 356 354 354 354 354 354 354 354 353 351 350 351 351 351 351 351 350 351 352 354 355 357 356 355 356 355 354 354 356 356 357 360 360 359
356 358 357 355 355 355 357 358 357 356 356 355 355 355 354 354 353 352 352 353 353 352 351 350 350 351 352 353 355 356 356 354 353 354 353 353 354 355 356 358 359 357
357 358 357 356 356 355 356 356 355 356 357 356 356 355 353 352 352 352 353 355 354 352 349 347 348 349 350 351 353 353 353 351 351 353 354 352 352 353 353 354 356 356
356 357 356 356 356 355 354 353 353 354 356 356 356 354 353 353 352 352 354 353 352 351 349 346 347 348 348 348 348 349 349 349 350 353 355 353 352 353 352 352 353 353
353 353 353 354 353 352 353 353 352 352 353 354 353 352 352 353 351 350 352 352 351 351 349 346 345 346 347 347 347 347 348 348 350 354 356 355 354 353 354 354 352 350
350 350 351 351 351 351 352 352 350 350 350 349 349 349 350 350 349 348 348 349 350 350 348 345 344 345 345 345 346 347 346 348 351 352 353 354 354 352 352 353 351 350
348 348 348 348 348 348 349 348 347 347 347 346 347 348 347 347 347 346 345 345 346 346 344 343 342 342 341 342 343 343 344 346 349 349 348 351 353 352 351 351 350 349
345 344 343 343 345 346 346 346 346 345 345 345 346 346 345 344 343 343 341 342 342 342 341 339 338 338 338 339 340 340 342 344 344 344 344 345 346 346 346 347 347 346
343 342 341 341 343 343 342 343 343 342 343 343 343 343 342 340 339 339 338 337 338 338 337 335 334 334 335 335 335 335 337 337 335 333 333 334 336 336 337 339 339 337
Wind_Speed
15 14 14 14 13 11 11 10 10 10 9 9 9 9 9 8 8 8 8 8 9 9 8 7 7 7 7 7 8 8 8 7 6 6 6 6 7 7 8 9 8 7
16 15 15 14 14 13 12 11 10 10 9 9 8 7 7 8 9 9 8 9 9 9 9 9 8 9 8 8 9 9 9 9 8 8 8 8 8 8 9 10 9 9
17 16 16 15 15 14 14 12 11 10 10 10 10 9 9 9 9 9 9 9 10 10 10 10 10 10 10 9 10 10 9 10 10 9 9 8 8 9 10 11 10 10
17 17 17 16 15 14 14 14 13 12 12 11 11 11 10 10 10 10 10 10 10 10 10 10 10 10 10 10 10 10 10 11 10 10 9 10 10 11 12 11 11 11
18 17 17 16 16 15 15 14 14 14 13 13 12 12 11 10 10 10 11 11 11 11 11 11 11 11 10 10 10 11 11 11 11 11 11 11 12 13 13 12 12 12
17 18 17 16 16 15 15 15 15 15 14 14 13 13 12 12 12 12 12 12 12 13 13 12 12 12 11 11 11 11 11 11 11 11 12 12 12 13 13 12 12 12
17 17 17 16 16 16 16 16 16 15 15 14 14 14 13 13 13 13 13 13 12 12 12 12 12 12 12 11 12 12 12 12 12 10 11 12 12 12 13 12 11 11
16 16 16 17 17 17 17 17 16 16 15 15 14 14 14 14 14 13 13 13 13 13 12 12 12 12 12 12 12 13 14 14 13 11 12 13 13 13 13 12 11 12
15 15 15 17 17 17 17 17 17 16 16 16 15 15 14 14 14 13 13 13 13 13 12 12 12 12 13 13 13 13 13 13 13 12 13 14 14 14 14 13 12 13
14 15 16 16 17 17 17 18 17 17 17 17 16 15 15 14 14 14 13 13 13 13 13 13 13 13 14 14 14 14 14 13 12 12 13 14 14 14 14 13 13 14
11 13 15 16 16 17 17 18 18 18 18 18 17 17 16 15 15 15 14 14 14 14 14 15 14 15 15 15 15 15 14 14 14 14 14 14 15 15 14 13 14 14
11 13 14 13 12 14 14 15 17 18 18 18 17 17 17 17 16 15 15 15 15 15 16 16 15 16 15 15 16 15 15 15 14 15 16 15 15 15 14 14 16 15
12 12 13 12 11 12 13 12 14 17 18 18 18 17 17 17 17 17 16 15 15 16 16 15 14 15 15 15 15 15 15 14 12 12 14 14 14 14 13 13 15 15
10 11 13 13 13 15 15 12 14 17 17 14 16 17 17 18 17 17 17 16 16 16 16 16 16 15 13 13 12 13 13 13 13 11 11 13 15 15 14 14 16 17
11 14 18 17 16 16 15 14 15 17 16 13 14 16 16 17 16 16 16 16 16 15 15 16 15 14 13 12 13 14 14 13 14 14 12 13 16 16 15 16 17 18
14 16 16 15 15 15 16 17 16 16 16 14 14 15 15 14 14 15 16 15 16 16 13 8 9 11 14 14 15 17 16 13 12 14 14 15 15 15 15 16 16 17
15 16 17 16 14 15 16 16 15 15 17 17 15 12 10 10 11 12 12 12 12 11 5 1 3 8 11 12 13 15 15 13 11 13 16 16 14 14 15 14 13 13
14 15 16 16 17 18 17 15 15 16 17 16 15 12 10 10 10 11 10 10 11 10 7 5 2 5 6 8 10 12 14 14 12 13 16 16 15 15 14 12 11 11
11 11 12 13 16 18 16 14 14 13 14 16 16 14 12 13 13 13 10 6 6 7 6 6 4 4 5 5 7 10 12 13 12 14 18 17 15 14 12 11 13 14
7 6 8 10 12 14 13 13 12 10 10 12 13 12 12 12 11 9 6 2 3 4 2 1 1 3 5 5 7 9 11 12 11 12 14 14 16 16 15 14 14 13
5 5 6 7 9 10 10 10 10 9 8 8 7 6 7 8 8 7 5 4 4 6 6 3 3 4 4 5 6 7 8 9 9 9 10 11 13 15 14 13 13 13
3 4 5 6 7 9 10 9 10 9 7 6 6 6 5 5 5 5 4 4 3 5 6 3 2 4 5 6 7 7 7 7 7 9 10 10 11 13 13 13 14 16
4 3 2 4 6 8 9 8 8 8 7 5 5 7 7 6 5 5 6 6 5 5 6 4 0 3 5 5 5 6 5 6 8 9 10 9 9 11 12 12 13 14
6 7 7 4 2 3 6 7 6 5 5 5 6 8 7 5 5 5 6 7 6 6 4 3 1 1 2 2 3 3 3 5 8 10 10 9 8 8 9 8 8 8
10 11 12 11 10 9 7 7 7 5 5 6 7 8 7 5 4 6 7 7 8 7 5 3 3 3 2 2 2 2 4 6 8 10 9 9 9 9 9 8 6 5
12 11 12 12 12 12 9 9 10 8 7 8 9 10 10 8 7 8 9 9 9 8 7 4 3 4 4 3 4 4 6 7 7 9 9 10 10 10 10 9 8 8
Wind_Direction
198 198 200 205 208 211 211 209 210 209 211 212 211 209 205 205 203 203 205 197 195 204 201 200 207 210 211 210 211 220 228 232 239 240 230 235 254 260 265 267 261 262
199 200 201 204 207 211 213 213 212 209 210 215 218 213 202 203 204 205 209 206 206 207 204 207 213 213 213 212 214 217 222 231 232 228 230 238 244 247 254 259 257 256
202 202 203 206 207 208 211 212 212 212 213 214 215 214 210 208 205 205 211 213 217 215 206 210 217 214 213 217 223 224 221 228 233 231 231 234 240 248 252 257 262 258
206 206 207 210 211 210 211 212 211 213 217 216 214 213 214 214 208 205 208 212 219 221 214 213 217 217 216 217 222 227 226 227 231 232 234 235 238 245 250 251 256 260
207 210 212 214 215 214 213 214 215 215 216 217 216 214 212 213 215 211 209 210 214 220 221 217 218 221 220 214 218 230 233 232 230 226 229 237 238 238 241 242 244 251
208 211 215 217 218 219 218 218 218 219 218 217 216 217 213 212 216 218 217 215 215 217 219 220 219 223 224 218 220 231 236 239 237 225 222 232 240 242 244 246 247 248
209 210 214 219 220 222 223 224 222 221 223 222 220 219 217 214 216 221 223 223 223 222 221 221 217 219 224 222 219 227 236 241 241 233 229 236 242 247 252 252 251 251
212 210 212 218 222 224 226 228 227 226 225 226 225 223 222 220 218 220 223 224 227 229 228 227 220 216 224 226 223 227 234 239 240 237 237 244 248 251 253 253 254 253
216 216 215 217 221 224 227 229 229 228 227 228 230 227 224 225 226 226 225 225 228 231 231 231 227 222 226 230 230 230 234 239 241 239 238 244 249 250 249 250 250 250
221 220 222 222 224 225 226 230 230 229 227 227 231 232 228 225 227 231 230 228 228 230 231 231 231 229 229 230 230 229 232 237 240 243 245 246 249 250 251 252 252 251
239 234 229 226 228 229 228 229 229 229 229 227 227 231 232 229 226 228 230 230 230 230 232 232 231 231 230 231 234 233 232 234 235 239 243 245 247 250 252 256 259 258
253 254 252 245 241 243 242 239 236 233 230 227 227 227 229 230 228 227 227 227 228 231 232 232 231 232 231 230 233 235 235 236 234 234 241 245 247 249 250 251 253 255
238 253 272 283 281 274 269 260 254 252 242 232 229 228 228 231 230 228 228 227 229 230 231 233 233 233 234 234 234 239 242 244 241 235 241 248 248 251 259 259 259 262
225 234 247 256 262 271 278 270 264 277 281 265 247 237 229 231 233 232 230 228 229 231 229 230 232 235 238 239 239 244 250 257 262 255 251 254 254 254 258 259 263 270
220 226 232 235 235 244 257 257 253 269 286 287 276 266 250 239 238 239 239 236 235 238 234 224 221 228 239 242 240 241 241 250 260 262 264 264 262 259 256 258 261 266
225 228 235 240 239 235 237 240 244 255 263 259 260 271 275 266 254 248 247 244 239 241 242 231 221 229 237 242 244 242 241 247 255 260 265 267 263 260 258 260 265 270
234 235 234 234 235 235 237 239 239 245 252 247 240 242 255 270 279 283 282 280 275 271 279 359 259 247 243 246 247 246 251 261 263 260 264 265 260 259 261 264 267 274
232 233 232 231 228 227 232 236 233 233 238 238 233 223 209 214 243 267 281 298 314 329 9 41 340 271 264 261 251 245 252 260 263 264 265 263 260 258 260 266 267 268
233 225 225 227 223 222 224 224 224 230 235 229 221 213 208 213 224 232 238 264 321 333 339 352 335 277 261 254 239 239 252 261 266 269 267 268 273 272 268 271 273 272
245 226 224 224 219 220 225 225 220 220 224 223 216 212 214 217 216 212 207 181 63 56 42 7 298 262 264 257 246 252 264 272 277 273 268 272 279 278 273 272 274 276
250 235 230 221 212 219 231 235 232 226 219 211 202 199 203 199 196 190 168 144 131 115 113 152 239 274 294 289 281 279 278 282 287 281 276 277 274 273 278 284 290 296
280 262 245 229 225 233 235 228 222 218 209 192 175 164 152 146 161 167 139 118 128 132 132 152 262 301 307 305 303 300 296 300 300 287 284 284 274 273 285 295 307 319
360 342 282 248 241 232 217 201 199 200 192 181 169 160 150 135 127 136 133 116 100 112 139 157 263 316 311 313 315 315 319 320 308 292 289 295 293 291 298 302 308 325
47 59 73 82 105 160 172 173 180 189 174 157 153 151 152 150 137 129 131 130 120 110 122 149 147 3 344 351 338 339 8 1 336 315 300 306 321 323 327 334 326 330
75 80 82 85 90 95 110 126 125 118 112 116 126 130 130 135 135 122 115 120 122 113 106 116 123 112 84 48 23 34 66 45 8 355 347 349 356 353 351 4 18 9
80 84 83 86 93 93 88 88 94 98 99 102 110 114 115 113 110 107 100 96 103 116 124 124 105 86 73 59 54 61 75 71 41 23 21 16 12 7 2 4 14 8